STARLINK-3718, 52132

Orbit data source: Space-Track

STARLINK-3718, 52132 is a payload satellite owned by SpaceX/Seattle (US) in LEO that was launched on Sat, 19 Mar 2022 UTC via an FALCON 9 launch vehicle from the Air Force Eastern Test Range (AFETR). Payload-class satellites include a variety of spacecraft equipped with specific instruments for various scientific and technological missions. These include communications satellites like Starlink; space stations such as the ISS; scientific satellites like the Hubble; Earth observation satellites from companies like Planet Labs, Umbra, and HawkEye 360; GPS; miniature CubeSats for education and research; and military/defense satellites.

Loading next visibility...
Identifier
52132, 2022-029AW
Orbit
LEO
Country
Flag of USUS
Related business
Manufacturer
SpaceX/Seattle
Mission
Operational Commercial Communications
Bus & Motor
STARLINK, Unknown motor
Mass
297 kg wet, ~275 kg dry
Launch date (UTC)
2022-03-19 (4 years ago)
Launch vehicle
FALCON 9
Launch site
Air Force Eastern Test Range (AFETR)
Object type
Payload
Rocket body
Debris
Shape & HBR
Box + 1 Pan, 10.1 m
Radar Cross Section
13.562 m², Large (>1 m²)

Expand to show TLE details & history
Last TLE update: 2 days ago

TLE from 2 days ago
0 STARLINK-3718
1 52132U 22029AW  26171.15587672  .00000716  00000-0  63081-4 0  9992
2 52132  53.1600 329.0156 0001152  95.3169 264.7954 15.08832387236405
Epoch: 2026-06-20T03:44Z
TLE epoch observation values (Epoch: 2026-06-20T03:44:27.748Z)
Latitude
-0.00002°
Longitude
4.52542°
Altitude
540.73 km
Speed
7.593 km/s
True Right ascension
21h 56m 03s
True Declination
0° 00' 00"
Sunlit
Object was in full shadow at epoch
Visualization orbit readout
Latitude
Unknown
Longitude
Unknown
Altitude
Unknown
Speed
Unknown
Apparent Right ascension
Unknown
Apparent Declination
Unknown
Sunlit
N/A
Visualization observer readout
Local Sidereal Time
00:39:38
Azimuth
Unknown
Elevation
Unknown
Doppler factor
Unknown
Orbital elements
Apogee altitude
540.818 km
Perigee altitude
539.224 km
Semi-major axis
6,918.158 km
Eccentricity
0.00012
Inclination
53.16°
RAAN
329.0156°
Arg. of periapsis
95.3169°
True anomaly
264.78225°
Mean anomaly
264.7954°
Eccentric anomaly
264.78883°
Mean motion
3.77188 °/min
Orbital period
95.44 mins
BSTAR
0.000063081
Loading maneuver chart data...
Computing Atmospheric mass density...

Documentation

Showing up to 5 results
|